Theta_e
340 339 339 338 337 339 338 337 338 338 338 337 336 335 335 335 335 336 334 333 331 333 335 333 333 333 332 336 335 336 330 329 323 328 329 335 336 336 335 334 336 336 332
339 336 334 335 334 333 331 330 331 329 329 328 328 327 325 325 327 325 325 325 324 325 326 326 326 326 329 331 328 328 326 328 324 321 325 325 324 328 333 330 329 330 331
332 331 330 329 328 327 327 327 326 326 325 324 323 322 321 321 321 322 320 320 321 321 321 321 321 321 321 321 322 321 320 321 322 322 320 323 324 328 329 330 331 332 331
329 327 326 325 325 324 324 323 322 321 319 318 318 317 316 316 317 316 312 312 314 316 319 319 318 318 318 316 313 313 316 316 318 316 317 317 320 325 325 324 323 327 325
324 323 322 323 322 321 320 319 319 318 317 316 315 315 315 314 308 308 308 308 311 312 314 314 316 313 311 307 309 310 310 309 309 309 308 310 311 313 315 318 317 319 322
320 319 319 319 318 318 318 318 318 317 316 316 314 313 313 312 299 300 302 305 308 311 313 314 315 315 311 308 308 306 305 306 306 307 307 308 311 312 313 311 311 310 308
317 317 316 316 315 315 315 315 315 315 314 313 312 311 310 311 298 297 299 305 308 312 314 312 310 311 309 309 307 306 306 304 304 306 304 306 307 308 308 306 306 306 307
314 314 314 313 313 313 312 312 312 312 311 309 309 309 309 303 297 297 298 307 310 308 309 308 307 306 301 302 304 304 306 308 309 307 308 307 308 308 305 304 303 304 305
310 309 309 309 308 308 308 309 309 308 308 308 308 309 306 303 296 296 298 305 306 306 306 308 307 305 295 295 301 303 303 305 305 302 301 299 298 297 299 302 299 299 298
307 307 308 308 307 306 307 307 308 309 309 308 306 306 301 302 295 294 295 303 303 304 308 303 298 299 294 294 300 302 300 303 304 304 305 306 304 304 299 302 302 299 299
308 308 307 307 306 306 308 309 307 305 304 304 303 303 303 301 299 294 294 301 300 301 302 303 300 295 294 293 293 302 299 297 299 300 302 302 303 304 304 304 305 302 300
307 306 305 306 306 306 306 304 304 303 303 303 302 303 304 303 296 294 293 294 295 299 299 301 302 293 293 293 296 294 294 295 301 300 299 299 300 301 302 303 304 303 304
304 305 305 305 306 304 302 301 302 302 301 301 302 301 301 302 301 296 294 294 296 298 300 299 295 293 294 297 297 296 296 300 300 299 299 299 300 301 303 302 304 303 303
303 304 305 304 301 301 301 300 299 298 298 300 299 299 299 300 298 297 297 298 297 299 299 300 298 297 296 297 299 299 298 299 300 300 301 302 303 299 299 300 299 300 300
302 303 303 301 300 298 297 295 295 293 292 296 296 297 296 295 293 290 290 294 295 295 296 298 297 298 298 299 300 300 300 300 299 299 299 299 299 299 296 298 297 297 297
302 300 299 301 300 298 295 294 289 290 289 289 289 290 293 289 289 289 290 290 290 290 297 297 295 295 295 295 295 294 295 295 295 295 296 296 296 296 294 294 295 295 296
297 297 297 297 298 298 298 296 292 290 289 289 288 288 288 288 289 289 290 289 290 292 294 293 292 292 292 293 293 293 292 293 295 294 293 293 294 294 291 291 292 294 296
296 292 297 298 298 299 299 298 297 295 294 291 289 290 289 289 289 289 290 293 293 293 293 293 292 292 292 292 291 291 291 292 291 291 291 291 291 290 289 290 291 292 293
296 297 298 298 298 297 298 297 296 295 294 294 295 293 292 290 290 290 290 292 290 290 290 291 292 291 291 291 291 290 291 291 291 289 289 289 289 288 288 289 290 289 291
296 291 294 297 297 297 297 297 295 294 293 294 293 293 295 295 294 293 292 291 291 289 290 290 291 292 292 291 291 290 290 291 290 287 286 286 287 287 287 288 290 292 294
296 296 288 298 298 297 297 297 296 295 294 294 292 290 283 294 294 294 293 293 293 292 292 292 293 294 294 293 293 292 291 291 289 286 285 286 287 287 288 290 292 294 295
296 296 297 298 298 297 298 298 298 297 296 295 294 292 285 296 294 294 294 295 295 295 295 295 295 295 295 294 294 293 292 290 286 286 286 287 287 288 291 292 293 294 295
294 295 297 298 297 291 296 297 296 295 295 294 294 294 294 294 294 294 294 295 296 296 296 296 295 295 295 294 294 292 290 287 286 287 288 289 288 292 293 292 292 294 297
293 295 297 297 296 295 295 293 293 290 293 294 294 294 294 294 294 294 294 295 295 295 295 295 295 295 293 293 292 291 290 288 287 290 290 293 291 295 294 293 294 295 297
295 294 295 295 295 294 294 294 294 293 293 293 293 293 294 294 293 294 294 294 294 294 294 294 293 294 291 291 290 289 285 283 286 285 290 294 298 299 294 293 293 294 295
295 295 296 296 295 294 294 294 293 293 292 292 292 292 292 292 292 293 293 293 293 293 293 293 292 293 290 288 287 285 283 283 285 284 287 298 298 298 299 293 293 292 293
Wind_Speed
16 14 14 14 13 14 12 11 10 9 9 9 9 6 6 5 4 2 2 2 3 5 5 6 9 6 6 6 6 6 6 5 7 10 11 10 5 5 4 10 9 6 8
16 17 18 17 16 14 13 12 11 10 9 8 7 6 5 5 5 5 6 7 7 8 8 8 10 8 9 7 5 5 6 6 5 10 6 5 4 6 8 5 6 9 8
20 19 18 17 15 14 13 11 10 9 8 8 7 6 6 6 4 6 7 8 8 8 9 9 10 10 10 9 9 9 9 9 7 8 10 7 9 9 10 11 11 9 8
20 19 17 16 14 13 12 11 9 8 8 7 6 7 7 8 8 8 10 11 11 11 10 9 10 10 9 10 10 11 10 11 10 11 11 10 10 9 9 9 10 11 10
19 18 17 15 13 12 11 10 8 8 8 7 7 8 8 8 9 9 10 12 12 12 11 10 9 6 2 4 6 9 10 10 11 11 12 11 11 10 11 10 11 10 9
18 17 15 14 12 10 9 8 8 8 8 8 8 8 8 7 7 10 10 11 13 12 10 9 9 6 6 9 5 4 7 10 11 10 11 12 12 12 11 11 11 12 13
16 14 13 11 10 8 7 7 8 7 8 8 9 9 9 7 8 8 10 10 11 10 7 10 9 9 10 10 8 9 12 13 14 11 14 13 14 11 11 11 12 12 12
14 12 10 9 8 7 6 8 7 7 8 8 8 8 7 10 10 12 16 11 6 9 7 6 5 4 7 9 12 13 12 12 11 8 10 12 12 11 10 10 11 13 12
12 11 9 8 7 7 8 7 7 7 6 6 6 8 9 8 12 13 14 8 8 8 6 6 5 4 6 10 11 13 13 11 9 9 15 17 17 17 16 10 12 11 13
9 7 7 8 8 7 7 6 6 5 5 8 7 6 7 6 9 10 12 7 7 7 8 10 13 10 6 6 10 11 11 10 14 15 14 12 11 12 19 14 12 12 11
7 7 8 7 6 6 5 6 7 7 5 4 4 4 5 5 6 8 11 10 8 8 7 6 5 9 11 11 9 8 10 11 13 11 10 9 10 10 9 9 9 11 12
6 6 7 6 5 7 7 6 5 4 2 3 4 3 3 3 5 8 7 8 10 8 7 7 8 14 13 12 9 12 13 10 7 8 8 8 8 8 9 10 12 12 10
5 6 6 5 7 7 5 4 3 4 4 4 3 4 5 6 3 6 4 7 6 7 6 9 13 12 10 7 10 12 9 7 7 8 8 8 8 10 11 11 11 14 14
4 5 3 8 6 5 4 5 5 4 3 4 6 5 5 5 8 9 9 8 9 8 8 6 7 5 3 7 7 4 6 7 7 10 10 11 11 9 10 9 10 10 9
3 4 4 5 4 6 8 7 6 8 8 7 7 6 7 7 9 10 9 7 8 10 8 5 5 7 8 8 9 11 9 10 11 11 11 11 13 11 11 10 10 10 10
4 5 4 2 4 4 6 8 12 8 6 9 10 9 5 8 10 11 8 6 9 10 5 7 8 9 10 10 10 10 11 13 10 10 11 11 11 12 12 12 10 10 11
5 3 6 3 5 5 4 7 7 6 8 7 8 7 5 5 9 10 11 3 9 10 8 8 8 9 9 10 9 10 10 10 12 11 11 11 11 11 13 12 11 11 12
7 3 3 4 4 4 4 4 5 4 5 6 5 6 2 5 8 11 13 6 8 9 8 8 9 9 9 10 10 10 11 11 12 12 12 12 12 12 13 12 12 13 12
4 5 4 4 6 4 5 5 6 6 6 4 3 3 6 4 6 9 10 9 8 8 9 9 9 10 10 11 11 11 13 11 10 12 11 11 12 11 12 12 13 16 13
4 4 0 6 5 5 5 6 6 6 5 5 5 5 4 3 6 7 8 8 7 7 8 8 8 8 10 10 10 11 12 11 12 11 11 11 11 11 12 14 12 14 14
5 5 2 5 5 5 5 6 6 6 5 4 7 5 5 6 7 8 7 6 6 6 8 8 8 9 9 10 10 11 12 12 13 12 11 11 12 12 11 11 12 13 12
6 5 4 6 6 6 6 6 6 5 5 5 6 5 6 4 7 7 7 8 8 8 7 8 9 10 12 12 13 14 14 15 13 12 12 11 11 11 11 12 12 12 12
5 5 5 6 6 5 5 7 6 6 6 7 7 7 7 7 8 8 8 8 8 8 9 9 10 11 12 12 13 14 15 14 13 13 12 13 11 10 11 12 13 13 12
4 5 6 6 5 7 8 8 7 6 7 7 7 7 7 7 8 9 8 8 8 9 9 9 11 14 14 14 14 14 14 14 14 14 19 13 12 10 8 12 12 15 12
6 5 7 7 7 7 6 8 8 7 7 7 7 7 7 8 8 8 9 9 8 9 10 11 11 14 18 21 20 22 20 21 20 20 15 16 14 17 7 10 13 12 16
5 5 7 6 6 6 7 7 8 7 7 7 7 7 8 8 9 9 9 10 9 10 11 10 14 17 20 18 20 18 20 23 22 25 19 15 14 15 8 9 15 11 13
Wind_Direction
105 105 103 103 106 107 109 109 100 89 81 79 90 97 89 74 49 12 332 291 308 301 303 293 302 310 319 310 315 306 300 318 302 303 322 331 336 340 269 226 270 281 266
117 107 103 103 105 104 99 96 92 85 77 67 58 58 49 40 25 1 346 342 336 331 328 324 321 334 326 309 301 310 305 303 292 292 289 281 304 299 280 269 283 276 265
113 113 107 105 103 99 95 90 85 81 69 48 40 26 14 1 0 354 348 337 330 326 315 321 317 319 314 320 324 317 314 314 292 271 285 261 269 251 239 255 253 245 245
111 109 107 102 100 95 87 79 71 62 50 42 29 18 7 348 336 21 349 338 323 313 309 304 305 300 318 351 319 315 303 318 302 291 287 291 288 287 279 249 251 223 229
108 104 101 99 93 87 81 73 64 51 37 20 13 5 358 337 32 7 355 329 315 306 300 295 295 17 289 47 315 332 323 317 312 304 298 297 294 301 311 316 307 301 291
102 99 97 93 91 86 79 68 50 31 18 357 354 345 342 348 58 39 360 326 307 300 304 320 315 341 90 217 244 264 294 305 307 307 306 303 307 311 318 315 309 301 295
98 98 97 97 88 76 62 46 27 9 356 345 341 338 337 360 42 19 357 313 303 290 338 6 343 1 8 348 335 294 267 244 249 281 289 293 305 316 330 312 297 293 290
90 88 81 78 69 51 26 24 4 353 347 340 332 339 336 60 33 17 344 301 345 20 11 3 343 356 40 -0 326 312 304 302 294 271 270 281 282 287 290 286 284 284 284
92 81 63 50 45 25 15 2 356 352 342 342 351 19 25 55 35 18 341 327 359 343 315 275 268 61 41 19 324 315 317 316 331 287 257 266 271 270 264 282 278 277 279
82 79 58 39 27 11 9 1 9 1 18 9 20 28 56 85 49 25 357 322 341 337 321 78 65 41 15 356 328 318 314 329 332 320 314 309 285 267 254 246 254 262 265
61 45 43 28 8 34 20 33 28 25 31 13 29 59 52 29 75 33 20 354 356 333 339 333 125 27 9 335 314 321 335 319 315 313 316 310 306 301 298 294 279 251 254
40 30 29 29 22 45 48 38 50 6 60 40 35 27 62 46 66 62 40 7 343 333 329 329 333 350 331 321 330 328 313 312 311 305 296 296 300 302 297 290 282 277 272
23 29 36 38 49 55 50 28 64 40 19 36 34 27 24 43 86 75 68 328 320 317 322 324 300 301 316 336 326 318 324 328 328 316 311 307 308 306 303 307 288 270 262
30 41 49 71 64 52 58 50 39 32 33 21 28 13 15 18 25 359 354 346 353 338 4 337 2 331 306 293 299 336 338 306 305 305 320 318 315 320 314 314 312 312 280
80 72 52 100 85 100 63 33 78 48 21 358 20 22 12 10 10 336 332 347 349 345 328 15 1 353 350 348 350 349 342 343 342 336 321 322 320 322 320 321 315 309 297
106 89 60 90 93 110 125 110 71 81 95 79 53 29 91 55 339 335 341 348 347 329 340 13 6 359 354 348 350 345 343 342 338 329 329 322 323 324 323 319 318 310 302
105 151 103 115 163 128 135 150 137 134 94 107 96 75 48 0 346 351 350 320 13 355 29 17 10 1 352 348 353 346 337 338 335 335 326 326 325 323 323 319 319 316 316
114 54 150 128 125 131 95 98 90 113 121 131 102 61 89 20 8 13 351 23 29 27 20 16 12 5 357 353 350 344 337 339 340 335 331 329 328 326 323 320 319 318 313
128 151 122 103 70 79 101 100 89 78 68 69 84 101 58 126 64 42 20 37 29 22 14 8 7 5 357 352 350 342 342 342 335 338 330 328 326 325 318 315 313 311 304
124 42 268 105 123 113 116 108 105 97 83 68 54 49 37 74 53 46 45 35 35 25 19 5 4 11 358 355 352 342 343 338 347 338 331 325 324 322 316 315 316 317 315
129 130 333 139 130 121 111 106 102 104 110 115 76 63 306 327 47 52 43 45 34 31 34 0 4 10 3 357 352 350 347 346 353 335 326 324 322 320 316 312 315 319 319
127 146 167 138 145 142 131 122 117 110 92 84 96 99 247 41 45 45 40 31 24 29 32 5 9 8 8 1 2 355 354 354 342 331 321 322 318 316 319 324 329 328 326
140 166 162 124 100 159 135 101 99 95 85 74 68 60 55 51 46 38 33 28 22 21 20 20 12 12 15 8 9 357 359 351 337 323 328 320 317 319 334 334 332 330 334
171 191 173 143 117 120 114 106 98 51 71 73 67 63 56 55 48 43 33 26 22 21 20 22 14 13 14 13 9 360 1 345 332 331 330 320 308 335 344 341 339 339 337
190 151 133 139 121 115 119 96 89 82 77 71 63 57 53 53 46 42 30 17 22 22 20 23 14 10 19 13 10 1 350 338 332 332 331 314 348 348 17 353 347 344 347
132 123 112 113 108 99 97 93 90 85 81 72 70 61 50 40 45 29 31 21 16 18 20 17 12 7 24 11 4 353 350 341 338 333 326 357 354 357 5 8 4 353 352